Main page
METAR-TAF:

METAR-TAF

Airports :

Tétouan, Morocco

Sania Ramel Airport

latitude: 35-35N, longitude: 005-20W, elevation: 10 m

Current weather observation

The report was made 50 minutes ago, at 08:00 UTC
Wind 1 kt from variable directions
Temperature 28°C
Humidity 48%
Pressure 1012 hPa
Visibility: 8000 m

METAR: GMTN 260800Z VRB01KT 8000 NSC 28/16 Q1012 NOSIG

Time: 08:50 (08:50 UTC)


TAF: missing

Weather observations and forecasts of more than 4000 airports (METAR and TAF reports).

The available stations are represented by yellow and red dots on the map.

Hover mouse over dot to see the name of the station.

Then click to see weather observations and forecasts.

To change the map : click on the green buttons with a black cross to zoom in, on the green button with a dash to zoom out, or on the green arrows for adjacent maps.


METAR-TAF: